TUI7CX EDDV-LGIR

Flight info

Callsign TUI7CX
Flight time N/A
Altitude 35000
Route POVEL4S POVEL Z94 GALMA M736 RELKO DCT ALOSO DCT ABERU DCT ARMUT DCT LAMSI DCT RADLY DCT PODET DCT KOMAR DCT EDALA DCT GACMO DCT POD DCT PINDO UL607 GIVIS T514 XAVIS
Aircraft B738/M-SDE2E3FGHIRWXY/LB1

Departure

Time 2026-05-05 10:12
Airport Hannover Airport (EDDV)

Arrival

Time N/A
Airport Heraklion International Nikos Kazantzakis Airport (LGIR)
Time Latitude Longitude Altitude Speed Heading
2026-05-05 09:48 52.45736 9.69632 177 ft 0 kts 27°
2026-05-05 10:03 52.45726 9.69624 178 ft 3 kts 27°
2026-05-05 10:03 52.45708 9.69609 177 ft 3 kts 27°
2026-05-05 10:04 52.45692 9.69592 177 ft 3 kts 46°
2026-05-05 10:04 52.45681 9.69567 177 ft 3 kts 77°
2026-05-05 10:04 52.45679 9.69546 177 ft 1 kts 92°
2026-05-05 10:04 52.45679 9.69545 177 ft 0 kts 92°
2026-05-05 10:07 52.45679 9.69546 177 ft 1 kts 92°
2026-05-05 10:07 52.45678 9.69583 177 ft 6 kts 93°
2026-05-05 10:07 52.45675 9.69662 177 ft 8 kts 93°
2026-05-05 10:08 52.45673 9.69743 177 ft 4 kts 91°
2026-05-05 10:08 52.45667 9.69791 177 ft 5 kts 115°
2026-05-05 10:08 52.45628 9.69833 178 ft 8 kts 151°
2026-05-05 10:08 52.45599 9.69927 178 ft 11 kts 94°
2026-05-05 10:09 52.45596 9.70072 178 ft 14 kts 92°
2026-05-05 10:09 52.45591 9.70246 178 ft 17 kts 92°
2026-05-05 10:09 52.45585 9.70453 178 ft 19 kts 93°
2026-05-05 10:09 52.45579 9.70671 178 ft 19 kts 92°
2026-05-05 10:10 52.45574 9.70881 178 ft 18 kts 92°
2026-05-05 10:10 52.45540 9.71070 178 ft 18 kts 142°
2026-05-05 10:10 52.45434 9.71101 183 ft 9 kts 181°
2026-05-05 10:10 52.45403 9.71072 188 ft 5 kts 268°
2026-05-05 10:11 52.45403 9.71068 188 ft 0 kts 270°
2026-05-05 10:11 52.45408 9.70867 184 ft 51 kts 272°
2026-05-05 10:11 52.45435 9.69889 181 ft 120 kts 272°
2026-05-05 10:12 52.45486 9.68169 231 ft 173 kts 272°
2026-05-05 10:12 52.45507 9.66225 1062 ft 173 kts 273°
2026-05-05 10:12 52.45515 9.64142 1864 ft 193 kts 268°
2026-05-05 10:12 52.45484 9.61870 2543 ft 206 kts 268°
2026-05-05 10:13 52.45556 9.59473 3225 ft 214 kts 276°
2026-05-05 10:13 52.45720 9.57022 4049 ft 219 kts 270°
2026-05-05 10:13 52.45497 9.54651 4987 ft 209 kts 242°
2026-05-05 10:13 52.44692 9.52654 5674 ft 214 kts 221°
2026-05-05 10:14 52.43445 9.51273 6410 ft 219 kts 210°
2026-05-05 10:14 52.42106 9.50042 7113 ft 222 kts 210°
2026-05-05 10:14 52.40753 9.48838 7812 ft 224 kts 209°
2026-05-05 10:14 52.39377 9.47592 8514 ft 228 kts 210°
2026-05-05 10:15 52.37961 9.46376 9168 ft 231 kts 203°
2026-05-05 10:15 52.36385 9.46071 9821 ft 235 kts 168°
2026-05-05 10:15 52.34922 9.47385 10092 ft 255 kts 135°
2026-05-05 10:15 52.34010 9.49987 10369 ft 272 kts 114°
2026-05-05 10:16 52.33313 9.52966 10590 ft 293 kts 112°
2026-05-05 10:16 52.32584 9.56208 10774 ft 315 kts 112°
2026-05-05 10:16 52.31796 9.59696 10963 ft 337 kts 112°
2026-05-05 10:16 52.30964 9.63342 11239 ft 353 kts 112°
2026-05-05 10:17 52.30085 9.67150 11805 ft 360 kts 112°
2026-05-05 10:17 52.29197 9.70966 12497 ft 363 kts 112°
2026-05-05 10:17 52.28287 9.74845 13192 ft 366 kts 113°
2026-05-05 10:17 52.27366 9.78759 13844 ft 370 kts 113°
2026-05-05 10:18 52.26437 9.82698 14436 ft 374 kts 113°
2026-05-05 10:18 52.25505 9.86640 15002 ft 378 kts 112°
2026-05-05 10:18 52.24645 9.90725 15577 ft 383 kts 107°
2026-05-05 10:18 52.24039 9.94997 16088 ft 389 kts 103°
2026-05-05 10:19 52.23525 9.99388 16630 ft 394 kts 102°
2026-05-05 10:19 52.23027 10.03807 17214 ft 397 kts 102°
2026-05-05 10:19 52.22520 10.08201 17792 ft 401 kts 102°
2026-05-05 10:19 52.21979 10.12703 18371 ft 405 kts 102°
2026-05-05 10:20 52.21416 10.17242 18873 ft 409 kts 103°
2026-05-05 10:20 52.20837 10.21806 19377 ft 412 kts 103°
2026-05-05 10:20 52.20255 10.26338 19845 ft 415 kts 103°
2026-05-05 10:20 52.19655 10.30971 20299 ft 419 kts 103°
2026-05-05 10:21 52.19047 10.35638 20749 ft 422 kts 103°
2026-05-05 10:21 52.18641 10.38749 21062 ft 424 kts 103°
2026-05-05 10:21 52.18021 10.43489 21454 ft 429 kts 104°
2026-05-05 10:21 52.17392 10.48279 21876 ft 433 kts 104°
2026-05-05 10:22 52.16550 10.54676 22475 ft 437 kts 104°
2026-05-05 10:22 52.16117 10.57950 22774 ft 439 kts 104°
2026-05-05 10:22 52.15468 10.62847 23199 ft 443 kts 104°
2026-05-05 10:22 52.14822 10.67717 23577 ft 446 kts 104°
2026-05-05 10:23 52.14162 10.72667 23936 ft 449 kts 104°
2026-05-05 10:23 52.13414 10.77609 24291 ft 449 kts 113°
2026-05-05 10:23 52.11893 10.82003 24611 ft 443 kts 133°
2026-05-05 10:23 52.09713 10.85484 24999 ft 435 kts 149°
2026-05-05 10:24 52.07124 10.87977 25363 ft 431 kts 157°
2026-05-05 10:24 52.04449 10.90226 25706 ft 433 kts 158°
2026-05-05 10:24 52.01780 10.92438 26002 ft 437 kts 158°
2026-05-05 10:24 51.99065 10.94711 26378 ft 437 kts 157°
2026-05-05 10:25 51.96371 10.97000 26769 ft 438 kts 157°
2026-05-05 10:25 51.93668 10.99316 27092 ft 441 kts 156°
2026-05-05 10:25 51.90949 11.01655 27398 ft 444 kts 157°
2026-05-05 10:25 51.88237 11.03986 27708 ft 446 kts 157°
2026-05-05 10:26 51.85482 11.06351 28025 ft 448 kts 157°
2026-05-05 10:26 51.82719 11.08722 28325 ft 450 kts 157°
2026-05-05 10:26 51.79942 11.11105 28616 ft 452 kts 157°
2026-05-05 10:26 51.77148 11.13498 28897 ft 454 kts 157°
2026-05-05 10:27 51.74345 11.15894 29189 ft 455 kts 157°
2026-05-05 10:27 51.71545 11.18286 29595 ft 454 kts 157°
2026-05-05 10:27 51.68782 11.20640 29887 ft 455 kts 157°
2026-05-05 10:27 51.65968 11.23034 30078 ft 458 kts 157°
2026-05-05 10:28 51.63143 11.25435 30413 ft 457 kts 157°
2026-05-05 10:28 51.60337 11.27818 30820 ft 454 kts 158°
2026-05-05 10:28 51.57544 11.30185 31237 ft 451 kts 158°
2026-05-05 10:28 51.54769 11.32528 31576 ft 450 kts 158°
2026-05-05 10:29 51.51988 11.34870 31872 ft 450 kts 158°
2026-05-05 10:29 51.49217 11.37201 32188 ft 449 kts 158°
2026-05-05 10:29 51.46456 11.39523 32711 ft 444 kts 158°
2026-05-05 10:29 51.43659 11.41874 33203 ft 441 kts 158°
2026-05-05 10:30 51.40956 11.43867 33481 ft 435 kts 166°
2026-05-05 10:30 51.38058 11.45163 33727 ft 429 kts 174°
2026-05-05 10:30 51.35117 11.45703 34024 ft 422 kts 182°
2026-05-05 10:30 51.32183 11.45898 34310 ft 420 kts 182°
2026-05-05 10:31 51.29215 11.46123 34515 ft 422 kts 182°
2026-05-05 10:31 51.26306 11.46384 34692 ft 423 kts 181°
2026-05-05 10:31 51.23351 11.46678 34918 ft 422 kts 181°
2026-05-05 10:31 51.20425 11.46978 35239 ft 420 kts 181°
2026-05-05 10:32 51.17510 11.47273 35450 ft 420 kts 181°
2026-05-05 10:32 51.14580 11.47563 35611 ft 421 kts 181°
2026-05-05 10:32 51.11648 11.47852 35808 ft 421 kts 181°
2026-05-05 10:32 51.08579 11.48157 36033 ft 421 kts 180°
2026-05-05 10:33 51.05804 11.48775 36200 ft 426 kts 172°
2026-05-05 10:33 51.02937 11.50144 36349 ft 433 kts 163°
2026-05-05 10:33 51.00138 11.51916 36540 ft 433 kts 163°
2026-05-05 10:33 50.97340 11.53716 36775 ft 432 kts 163°
2026-05-05 10:34 50.94550 11.55498 36888 ft 433 kts 163°
2026-05-05 10:34 50.91736 11.57272 36876 ft 435 kts 163°
2026-05-05 10:34 50.86152 11.60749 36874 ft 432 kts 163°
2026-05-05 10:35 50.80571 11.64194 36876 ft 429 kts 164°
2026-05-05 10:35 50.75020 11.67611 36865 ft 426 kts 163°
2026-05-05 10:36 50.69496 11.71009 36869 ft 425 kts 163°
2026-05-05 10:36 50.64020 11.74410 36862 ft 426 kts 163°
2026-05-05 10:37 50.58453 11.77865 36885 ft 433 kts 163°
2026-05-05 10:37 50.52850 11.81332 36869 ft 437 kts 163°
2026-05-05 10:38 50.47170 11.84837 36888 ft 439 kts 163°
2026-05-05 10:38 50.41466 11.88345 36888 ft 440 kts 163°
2026-05-05 10:39 50.35785 11.91831 36873 ft 440 kts 163°
2026-05-05 10:39 50.30084 11.95319 36880 ft 438 kts 163°
2026-05-05 10:40 50.24452 11.98756 36892 ft 435 kts 163°
2026-05-05 10:40 50.18809 12.02189 36860 ft 432 kts 163°
2026-05-05 10:41 50.13255 12.05558 36867 ft 429 kts 163°
2026-05-05 10:41 50.07692 12.08927 36857 ft 427 kts 163°
2026-05-05 10:42 49.99453 12.14291 36839 ft 427 kts 161°
2026-05-05 10:43 49.94046 12.17941 36832 ft 427 kts 161°
2026-05-05 10:43 49.88571 12.21585 36835 ft 427 kts 161°
2026-05-05 10:44 49.83118 12.25185 36831 ft 428 kts 161°
2026-05-05 10:44 49.77618 12.28808 36817 ft 429 kts 161°
2026-05-05 10:45 49.72186 12.32592 36812 ft 434 kts 154°
2026-05-05 10:45 49.67262 12.38182 36820 ft 441 kts 146°
2026-05-05 10:46 49.62472 12.44087 36822 ft 443 kts 146°
2026-05-05 10:46 49.57631 12.49989 36817 ft 444 kts 146°
2026-05-05 10:47 49.52751 12.55866 36823 ft 445 kts 146°
2026-05-05 10:47 49.47853 12.61729 36800 ft 445 kts 146°
2026-05-05 10:48 49.42984 12.67540 36814 ft 445 kts 146°
2026-05-05 10:48 49.38077 12.73381 36821 ft 446 kts 146°
2026-05-05 10:49 49.33160 12.79221 36814 ft 446 kts 146°
2026-05-05 10:49 49.28279 12.85004 36812 ft 446 kts 146°
2026-05-05 10:50 49.23366 12.90811 36811 ft 445 kts 146°
2026-05-05 10:50 49.18451 12.96602 36813 ft 445 kts 146°
2026-05-05 10:51 49.13559 13.02353 36808 ft 445 kts 146°
2026-05-05 10:51 49.08638 13.08123 36812 ft 444 kts 146°
2026-05-05 10:52 49.03751 13.13839 36807 ft 444 kts 146°
2026-05-05 10:52 48.98842 13.19565 36796 ft 444 kts 146°
2026-05-05 10:53 48.93934 13.25276 36817 ft 443 kts 147°
2026-05-05 10:53 48.89016 13.30982 36811 ft 443 kts 146°
2026-05-05 10:54 48.84071 13.36708 36805 ft 443 kts 146°
2026-05-05 10:54 48.79193 13.42340 36812 ft 443 kts 146°
2026-05-05 10:55 48.74270 13.48009 36803 ft 443 kts 146°
2026-05-05 10:55 48.69383 13.53623 36805 ft 443 kts 146°
2026-05-05 10:56 48.64428 13.59178 36793 ft 441 kts 152°
2026-05-05 10:56 48.59129 13.63767 36804 ft 439 kts 155°
2026-05-05 10:57 48.53789 13.68140 36811 ft 439 kts 155°
2026-05-05 10:57 48.48424 13.72574 36798 ft 440 kts 154°
2026-05-05 10:58 48.43964 13.76299 36793 ft 440 kts 154°
2026-05-05 10:58 48.37729 13.81522 36793 ft 440 kts 154°
2026-05-05 10:59 48.33271 13.85252 36801 ft 441 kts 154°
2026-05-05 10:59 48.27896 13.89737 36795 ft 441 kts 154°
2026-05-05 11:00 48.22545 13.94190 36803 ft 441 kts 154°
2026-05-05 11:00 48.17158 13.98661 36798 ft 441 kts 154°
2026-05-05 11:01 48.11810 14.03090 36802 ft 441 kts 154°
2026-05-05 11:01 48.06423 14.07539 36822 ft 442 kts 154°
2026-05-05 11:02 48.01035 14.11980 36813 ft 442 kts 154°
2026-05-05 11:02 47.95637 14.16418 36801 ft 442 kts 154°
2026-05-05 11:03 47.90277 14.20814 36805 ft 443 kts 154°
2026-05-05 11:03 47.84873 14.25236 36813 ft 443 kts 154°
2026-05-05 11:04 47.79456 14.29657 36810 ft 443 kts 154°
2026-05-05 11:04 47.74071 14.34042 36810 ft 443 kts 154°
2026-05-05 11:05 47.68650 14.38445 36813 ft 443 kts 154°
2026-05-05 11:05 47.63238 14.42832 36812 ft 443 kts 154°
2026-05-05 11:06 47.57868 14.47173 36825 ft 442 kts 154°
2026-05-05 11:06 47.52469 14.51527 36845 ft 442 kts 154°
2026-05-05 11:07 47.47069 14.55872 36851 ft 441 kts 155°
2026-05-05 11:07 47.41697 14.60183 36878 ft 440 kts 155°
2026-05-05 11:08 47.36328 14.64483 36904 ft 437 kts 155°
2026-05-05 11:08 47.30983 14.68756 36916 ft 435 kts 155°
2026-05-05 11:09 47.25666 14.72999 36911 ft 436 kts 155°
2026-05-05 11:09 47.20315 14.77252 36909 ft 439 kts 155°
2026-05-05 11:10 47.14923 14.81528 36914 ft 441 kts 155°
2026-05-05 11:10 47.09499 14.85821 36910 ft 443 kts 155°
2026-05-05 11:11 47.04091 14.90092 36912 ft 445 kts 155°
2026-05-05 11:11 46.98624 14.94399 36916 ft 446 kts 155°
2026-05-05 11:12 46.93145 14.98704 36922 ft 447 kts 155°
2026-05-05 11:12 46.87644 15.03018 36909 ft 448 kts 155°
2026-05-05 11:13 46.82172 15.07303 36918 ft 448 kts 155°
2026-05-05 11:13 46.76661 15.11609 36913 ft 447 kts 155°
2026-05-05 11:14 46.71204 15.15851 36932 ft 446 kts 155°
2026-05-05 11:14 46.65719 15.20115 36942 ft 446 kts 155°
2026-05-05 11:15 46.60350 15.24609 36964 ft 447 kts 152°
2026-05-05 11:15 46.55040 15.29388 36955 ft 447 kts 151°
2026-05-05 11:16 46.49739 15.34128 36964 ft 446 kts 152°
2026-05-05 11:16 46.44458 15.38794 36973 ft 446 kts 152°
2026-05-05 11:17 46.39140 15.43463 36980 ft 446 kts 152°
2026-05-05 11:17 46.33842 15.48103 36980 ft 447 kts 152°
2026-05-05 11:18 46.28508 15.52766 36986 ft 447 kts 152°
2026-05-05 11:18 46.23170 15.57421 36999 ft 448 kts 152°
2026-05-05 11:19 46.17856 15.62047 37000 ft 449 kts 152°
2026-05-05 11:19 46.12616 15.66989 37008 ft 451 kts 148°
2026-05-05 11:20 46.07489 15.72165 37002 ft 451 kts 148°
2026-05-05 11:20 46.02336 15.77351 37013 ft 451 kts 148°
2026-05-05 11:21 45.97176 15.82481 37008 ft 451 kts 149°
2026-05-05 11:21 45.91997 15.87593 37033 ft 450 kts 148°
2026-05-05 11:22 45.86835 15.92670 37006 ft 451 kts 148°
2026-05-05 11:22 45.81680 15.97731 37013 ft 450 kts 148°
2026-05-05 11:23 45.76506 16.02800 37027 ft 450 kts 148°
2026-05-05 11:23 45.71341 16.07849 37017 ft 449 kts 148°
2026-05-05 11:24 45.66178 16.12885 37008 ft 449 kts 148°
2026-05-05 11:24 45.61012 16.17911 36995 ft 449 kts 148°
2026-05-05 11:25 45.55881 16.22893 37002 ft 449 kts 148°
2026-05-05 11:25 45.50702 16.27910 37004 ft 449 kts 148°
2026-05-05 11:26 45.45547 16.32892 37003 ft 450 kts 148°
2026-05-05 11:26 45.40350 16.37905 37008 ft 451 kts 148°
2026-05-05 11:27 45.35136 16.42921 36999 ft 452 kts 149°
2026-05-05 11:27 45.29945 16.47904 36989 ft 453 kts 149°
2026-05-05 11:28 45.24675 16.52952 37006 ft 454 kts 149°
2026-05-05 11:28 45.19455 16.57941 37003 ft 455 kts 149°
2026-05-05 11:29 45.14218 16.62933 36990 ft 456 kts 149°
2026-05-05 11:29 45.08948 16.67946 37000 ft 456 kts 149°
2026-05-05 11:30 45.03667 16.72957 36996 ft 457 kts 149°
2026-05-05 11:30 44.98376 16.77969 37004 ft 457 kts 149°
2026-05-05 11:31 44.93119 16.82946 37001 ft 457 kts 149°
2026-05-05 11:31 44.87837 16.87966 37001 ft 457 kts 149°
2026-05-05 11:32 44.82558 16.92976 36994 ft 457 kts 149°
2026-05-05 11:32 44.77305 16.97946 36999 ft 457 kts 149°
2026-05-05 11:33 44.72013 17.02937 37004 ft 457 kts 149°
2026-05-05 11:33 44.66751 17.07890 36988 ft 456 kts 149°
2026-05-05 11:34 44.61477 17.12842 37003 ft 456 kts 149°
2026-05-05 11:34 44.56198 17.17789 37001 ft 455 kts 149°
2026-05-05 11:35 44.50956 17.22689 37025 ft 455 kts 149°
2026-05-05 11:35 44.45669 17.27621 37024 ft 456 kts 149°
2026-05-05 11:36 44.40374 17.32549 37026 ft 457 kts 149°
2026-05-05 11:36 44.35097 17.37449 37044 ft 458 kts 149°
2026-05-05 11:37 44.29770 17.42384 37027 ft 459 kts 149°
2026-05-05 11:37 44.24432 17.47321 37031 ft 460 kts 149°
2026-05-05 11:38 44.19119 17.52351 37032 ft 461 kts 147°
2026-05-05 11:38 44.13951 17.57602 37045 ft 462 kts 147°
2026-05-05 11:39 44.08755 17.62904 37042 ft 462 kts 147°
2026-05-05 11:39 44.03566 17.68136 37043 ft 463 kts 147°
2026-05-05 11:40 43.98329 17.73373 37043 ft 463 kts 147°
2026-05-05 11:40 43.93087 17.78598 37054 ft 464 kts 147°
2026-05-05 11:41 43.87861 17.83797 37057 ft 465 kts 147°
2026-05-05 11:41 43.82592 17.89027 37060 ft 465 kts 147°
2026-05-05 11:42 43.77313 17.94257 37057 ft 466 kts 147°
2026-05-05 11:42 43.72030 17.99481 37053 ft 466 kts 147°
2026-05-05 11:43 43.66776 18.04664 37057 ft 466 kts 147°
2026-05-05 11:43 43.61485 18.09871 37062 ft 467 kts 148°
2026-05-05 11:44 43.56215 18.15046 37078 ft 466 kts 148°
2026-05-05 11:44 43.50918 18.20237 37076 ft 466 kts 148°
2026-05-05 11:45 43.46519 18.24539 37086 ft 465 kts 148°
2026-05-05 11:45 43.41231 18.29700 37082 ft 464 kts 148°
2026-05-05 11:46 43.35985 18.34808 37079 ft 463 kts 148°
2026-05-05 11:46 43.30710 18.39932 37087 ft 463 kts 148°
2026-05-05 11:47 43.25437 18.45043 37086 ft 464 kts 148°
2026-05-05 11:47 43.20177 18.50131 37090 ft 465 kts 148°
2026-05-05 11:48 43.12209 18.57797 37091 ft 467 kts 149°
2026-05-05 11:48 43.06824 18.62824 37086 ft 468 kts 149°
2026-05-05 11:49 43.01439 18.67811 37101 ft 470 kts 149°
2026-05-05 11:49 42.96010 18.72842 37100 ft 471 kts 149°
2026-05-05 11:50 42.90568 18.77884 37090 ft 473 kts 149°
2026-05-05 11:50 42.85117 18.82927 37097 ft 473 kts 149°
2026-05-05 11:51 42.79667 18.87958 37104 ft 473 kts 150°
2026-05-05 11:51 42.74245 18.92950 37109 ft 473 kts 150°
2026-05-05 11:52 42.68782 18.97969 37112 ft 474 kts 150°
2026-05-05 11:52 42.63302 19.02993 37117 ft 474 kts 150°
2026-05-05 11:53 42.57864 19.07968 37112 ft 474 kts 150°
2026-05-05 11:53 42.52381 19.12973 37119 ft 475 kts 150°
2026-05-05 11:54 42.46887 19.17976 37126 ft 475 kts 150°
2026-05-05 11:54 42.41416 19.22949 37140 ft 475 kts 150°
2026-05-05 11:55 42.35925 19.27951 37127 ft 476 kts 150°
2026-05-05 11:55 42.30446 19.33018 37129 ft 476 kts 149°
2026-05-05 11:56 42.24997 19.38062 37131 ft 477 kts 149°
2026-05-05 11:56 42.19513 19.43116 37123 ft 478 kts 149°
2026-05-05 11:57 42.14004 19.48174 37112 ft 479 kts 149°
2026-05-05 11:57 42.08483 19.53231 37134 ft 479 kts 149°
2026-05-05 11:58 42.02997 19.58245 37136 ft 480 kts 150°
2026-05-05 11:58 41.97451 19.63303 37131 ft 481 kts 150°
2026-05-05 11:59 41.91890 19.68364 37121 ft 482 kts 150°
2026-05-05 11:59 41.86361 19.73385 37130 ft 483 kts 149°
2026-05-05 12:00 41.80782 19.78442 37129 ft 483 kts 149°
2026-05-05 12:00 41.75231 19.83461 37134 ft 484 kts 149°
2026-05-05 12:01 41.69628 19.88517 37133 ft 485 kts 149°
2026-05-05 12:01 41.64056 19.93535 37119 ft 485 kts 149°
2026-05-05 12:02 41.58442 19.98579 37120 ft 485 kts 149°
2026-05-05 12:02 41.52831 20.03611 37128 ft 485 kts 149°
2026-05-05 12:03 41.47205 20.08645 37115 ft 485 kts 149°
2026-05-05 12:03 41.41618 20.13632 37109 ft 485 kts 149°
2026-05-05 12:04 41.36001 20.18638 37127 ft 485 kts 149°
2026-05-05 12:04 41.30412 20.23607 37114 ft 486 kts 149°
2026-05-05 12:05 41.24762 20.28618 37124 ft 487 kts 149°
2026-05-05 12:05 41.19113 20.33619 37120 ft 488 kts 149°
2026-05-05 12:06 41.13484 20.38593 37113 ft 489 kts 149°
2026-05-05 12:06 41.07800 20.43604 37112 ft 489 kts 149°
2026-05-05 12:07 41.02147 20.48578 37128 ft 489 kts 149°
2026-05-05 12:07 40.96460 20.53571 37125 ft 489 kts 149°
2026-05-05 12:08 40.90773 20.58553 37114 ft 490 kts 149°
2026-05-05 12:08 40.85106 20.63507 37117 ft 490 kts 149°
2026-05-05 12:09 40.79406 20.68480 37107 ft 490 kts 149°
2026-05-05 12:09 40.73708 20.73440 37108 ft 490 kts 149°
2026-05-05 12:10 40.68018 20.78383 37104 ft 490 kts 149°
2026-05-05 12:10 40.62357 20.83290 37115 ft 490 kts 149°
2026-05-05 12:11 40.56633 20.88241 37097 ft 490 kts 149°
2026-05-05 12:11 40.50965 20.93134 37105 ft 490 kts 149°
2026-05-05 12:12 40.45427 20.98403 37096 ft 492 kts 141°
2026-05-05 12:12 40.40300 21.04403 37104 ft 493 kts 139°
2026-05-05 12:13 40.35233 21.10409 37099 ft 493 kts 139°
2026-05-05 12:13 40.30075 21.16395 37107 ft 493 kts 139°
2026-05-05 12:14 40.24937 21.22285 37107 ft 494 kts 139°
2026-05-05 12:14 40.19756 21.28205 37113 ft 494 kts 140°
2026-05-05 12:15 40.14587 21.34105 37101 ft 494 kts 140°
2026-05-05 12:15 40.09385 21.40035 37098 ft 494 kts 140°
2026-05-05 12:16 40.04230 21.45897 37101 ft 494 kts 140°
2026-05-05 12:16 39.99033 21.51794 37093 ft 495 kts 140°
2026-05-05 12:17 39.93824 21.57694 37093 ft 495 kts 140°
2026-05-05 12:17 39.88653 21.63539 37093 ft 495 kts 140°
2026-05-05 12:18 39.83446 21.69411 37099 ft 495 kts 140°
2026-05-05 12:18 39.78228 21.75281 37097 ft 496 kts 140°
2026-05-05 12:19 39.72996 21.81154 37086 ft 496 kts 140°
2026-05-05 12:19 39.67777 21.87002 37078 ft 497 kts 140°
2026-05-05 12:20 39.62531 21.92866 37067 ft 496 kts 140°
2026-05-05 12:20 39.57329 21.98670 37058 ft 495 kts 140°
2026-05-05 12:21 39.52106 22.04485 37064 ft 494 kts 140°
2026-05-05 12:21 39.46886 22.10285 37060 ft 494 kts 140°
2026-05-05 12:22 39.41696 22.16040 37066 ft 493 kts 140°
2026-05-05 12:22 39.36469 22.21824 37055 ft 494 kts 140°
2026-05-05 12:23 39.31233 22.27606 37065 ft 494 kts 140°
2026-05-05 12:23 39.26029 22.33341 37065 ft 494 kts 140°
2026-05-05 12:24 39.20776 22.39119 37073 ft 495 kts 140°
2026-05-05 12:24 39.15561 22.44843 37062 ft 496 kts 140°
2026-05-05 12:25 39.10292 22.50614 37053 ft 496 kts 140°
2026-05-05 12:25 39.05046 22.56349 37066 ft 497 kts 140°